Flag for Norway Weather past 2 weeks in Longyearbyen, Svalbard, Norway

Now
1 °F

Passing clouds.


Feels Like: -17 °F
Forecast: -12 / -5 °F
Wind: 14 mph from Southeast

Location: Svalbard Lufthavn

Current Time: Dec 26, 2014 at 5:36:12 AM

Latest Report: Dec 26, 2014 at 4:50 AM


Visibility: N/A

Pressure: 30.07 "Hg

Humidity: 71%

Dew point: -6 °F

Location of LongyearbyenLocation

Historic Weather in Longyearbyen — Graph

°F

Longyearbyen temperature yesterday

Maximum temperature yesterday: 1 °F (at 12:50 AM)
Minimum temperature yesterday: -4 °F (at 11:50 PM)
Average temperature yesterday: 0 °F

Past Weeks' High & Low Weather Summary

 TemperatureHumidityPressure
High25 °F (Dec 11, 4:50 PM)93% (Dec 14, 6:50 PM)30.07 "Hg (Dec 14, 6:50 PM)
Low-4 °F (Dec 25, 11:50 PM)50% (Dec 25, 6:50 PM)28.71 "Hg (Dec 12, 10:50 PM)
Average12 °F73%29.37 "Hg
* Reported Dec 11 4:50 AM — Dec 26 4:50 AM, Longyearbyen, Weather by CustomWeather, © 2014

Note: Actual official high and low records may vary slightly from our data, if they occured in-between our weather recording intervals... More about our weather records

Advertising

Longyearbyen weather history for previous 24 hours

 ConditionsComfort  
Time TempWeatherWind HumidityBarometerVisibility
4:50 AM
Dec 26
1 °FPassing clouds.14 mph71%30.07 "HgN/A
3:50 AM0 °FPassing clouds.12 mph78%30.04 "HgN/A
2:50 AM0 °FPassing clouds.13 mph71%30.07 "HgN/A
1:50 AM0 °FPassing clouds.15 mph65%30.04 "HgN/A
12:50 AM-2 °FScattered clouds.16 mph65%30.04 "HgN/A
11:50 PM
Dec 25
-4 °FPassing clouds.17 mph65%30.04 "HgN/A
10:50 PM-2 °FPassing clouds.17 mph65%30.04 "HgN/A
9:50 PM0 °FPassing clouds.20 mph65%30.04 "HgN/A
8:50 PM1 °FPassing clouds.13 mph65%30.01 "HgN/A
7:50 PM1 °FPassing clouds.15 mph55%30.01 "HgN/A
6:50 PM1 °FPassing clouds.20 mph50%30.01 "HgN/A
5:50 PM0 °FPassing clouds.18 mph54%30.01 "HgN/A
4:50 PM0 °FPassing clouds.17 mph54%29.98 "HgN/A
3:50 PM0 °FPassing clouds.15 mph60%29.98 "HgN/A
2:50 PM0 °FPassing clouds.15 mph54%29.98 "HgN/A
1:50 PM0 °FPassing clouds.18 mph60%29.95 "HgN/A
12:50 PM1 °FClear.21 mph60%29.95 "HgN/A
11:50 AM0 °FClear.22 mph60%29.92 "HgN/A
10:50 AM1 °FClear.22 mph55%29.92 "HgN/A
9:50 AM1 °FPassing clouds.20 mph60%29.92 "HgN/A
8:50 AM0 °FPassing clouds.17 mph60%29.89 "HgN/A
7:50 AM1 °FPassing clouds.20 mph55%29.89 "HgN/A
6:50 AM1 °FPassing clouds.18 mph60%29.89 "HgN/A
5:50 AM1 °FPassing clouds.21 mph60%29.86 "HgN/A
Weather by CustomWeather, © 2014

See weather overviewHow to use our weather pages